Orbital Elements at Epoch 2459000.5 (2020-May-31.0) TDB
Reference: JPL 13 (heliocentric ecliptic J2000)
Element | Value | Uncertainty (1-sigma) | Units |
e | .1665402113196905 | 4.5106e-08 | |
a | 3.168585855308047 | 2.5656e-08 | au |
q | 2.640888897380463 | 1.4591e-07 | au |
i | 2.60332910714873 | 4.3841e-06 | deg |
node | 98.86713275254689 | 0.00014052 | deg |
peri | 311.0788868271158 | 0.00014171 | deg |
M | 134.5694529221709 | 1.8538e-05 | deg |
tp | 2458230.411511132167 (2018-Apr-21.91151113) | 0.00010226 | TDB |
period | 2060.139578279765 5.64 | 2.5022e-05 6.851e-08 | d yr |
n | .1747454414232472 | 2.1224e-09 | deg/d |
Q | 3.696282813235632 | 2.9929e-08 | au |
|
| | Orbit Determination Parameters
Additional Information
|